Tracking 19651 objects as of 22-Apr-2019
HD Live streaming from Space Station
objects crossing your sky now

THORAD AGENA D DEB

Track THORAD AGENA D DEB now!
10-day predictions


NORAD ID: 4934
Int'l Code: 1970-025GA
Perigee: 993.7 km
Apogee: 1,004.5 km
Inclination: 100.0 °
Period: 104.9 minutes
Semi major axis: 7370 km
RCS: 0.012 m2 (small)
Launch date: April 8, 1970
Source: United States (US)
Launch site: AIR FORCE WESTERN TEST RANGE (AFWTR)

Note: This is SATELLITE DEBRIS
aabbcc
Your satellite tracking list
Your tracking list is empty




NASA's NSSDC Master Catalog

Two Line Element Set (TLE):
1  4934U 70025GA  19111.87755059 +.00000262 +00000-0 +34161-3 0  9991
2  4934 100.0487 071.6070 0007340 023.1440 038.4704 13.72125610437672
Source of the keplerian elements: AFSPC